Skip Page Navigation
NASA JPL Caltech
NASA Logo - Jet Propulsion Laboratory + View the NASA Portal
+ Center for Near-Earth Object Studies
JPL Home Earth Solar System Stars & Galaxies Technology
JPL Solar System Dynamics
BODIES ORBITS EPHEMERIDES TOOLS PHYSICAL DATA DISCOVERY FAQ SITE MAP
JPL Small-Body Database Browser
Search: [ help ]  
(2015 VM173)
Classification: TransNeptunian Object          SPK-ID: 3835797
Ephemeris | Orbit Diagram | Orbital Elements | Physical Parameters ]

[ show orbit diagram ]
Orbital Elements at Epoch 2459200.5 (2020-Dec-17.0) TDB
Reference: JPL 3 (heliocentric ecliptic J2000)
 Element Value Uncertainty (1-sigma)   Units 
e .05676987389561559 0.00039399  
a 43.90205836928239 0.0056603 au
q 41.40974405190028 0.016365 au
i 2.432509346363524 0.00089867 deg
node 183.6629375582485 0.022172 deg
peri 97.27063802870578 0.35137 deg
M 129.8554964745868 0.41114 deg
tp 2420875.374352198211
(1916-Jan-12.87435220)
116.96 TDB
period 106249.2201545645
290.89
20.548
0.05626
d
yr
n .003388260163004447 6.5527e-07 deg/d
Q 46.3943726866645 0.0059816 au
  Orbit Determination Parameters
   # obs. used (total)      41  
   data-arc span      1804 days (4.94 yr)  
   first obs. used      2014-11-17  
   last obs. used      2019-10-26  
   planetary ephem.      DE441  
   SB-pert. ephem.      SB441-N16  
   condition code      4  
   norm. resid. RMS      .088539  
   source      ORB  
   producer      Otto Matic  
   solution date      2021-Apr-15 15:18:59  

Additional Information
 Earth MOID = 40.3923 au 
 Jupiter MOID = 36.1891 au 
 T_jup = 5.913 
[ show covariance matrix ]

Ephemeris | Orbit Diagram | Orbital Elements | Physical Parameters ]

Physical Parameter Table
Parameter Symbol Value Units Sigma Reference Notes
absolute magnitude H 6.1   .14529 MPO458718 autocmod 2.6n
Ephemeris | Orbit Diagram | Orbital Elements | Physical Parameters ]
ABOUT SSD CREDITS/AWARDS PRIVACY/COPYRIGHT GLOSSARY LINKS
FirstGov 2021-May-16 22:00 UT
(server date/time)  
NASA Home Page
Site Manager:   Ryan S. Park
Webmaster  Alan B. Chamberlin